This is the latest recevied weather packets stored in our database for station/object SV5DDT-12. If no packets are shown the sender has not sent any weather packets the latest 10 day(s).
| Time | Temp. | Humidity | Pressure | Rain* | Wind** | Luminosity | Snow |
|---|---|---|---|---|---|---|---|
| 1777972500 | 21.67° C | 44% | 1015.5 hPa | - | - | - | - |
| 1777971600 | 21.67° C | 44% | 1015.8 hPa | - | - | - | - |
| 1777970700 | 21.67° C | 43% | 1016 hPa | - | - | - | - |
| 1777969800 | 21.67° C | 43% | 1016.2 hPa | - | - | - | - |
| 1777968900 | 21.11° C | 42% | 1016.3 hPa | - | - | - | - |
| 1777967999 | 21.11° C | 41% | 1016.1 hPa | - | - | - | - |
| 1777967099 | 21.11° C | 42% | 1016 hPa | - | - | - | - |
| 1777966199 | 20.56° C | 41% | 1016.1 hPa | - | - | - | - |
| 1777965299 | 20.56° C | 41% | 1015.9 hPa | - | - | - | - |
| 1777964398 | 20.56° C | 41% | 1016 hPa | - | - | - | - |
| 1777963498 | 20.56° C | 41% | 1015.9 hPa | - | - | - | - |
| 1777962598 | 20.56° C | 41% | 1015.9 hPa | - | - | - | - |
| 1777961698 | 20.56° C | 41% | 1016 hPa | - | - | - | - |
| 1777960798 | 20.56° C | 42% | 1015.9 hPa | - | - | - | - |
| 1777959898 | 20.56° C | 42% | 1015.7 hPa | - | - | - | - |
| 1777958997 | 21.11° C | 43% | 1015.9 hPa | - | - | - | - |
| 1777958097 | 21.11° C | 44% | 1015.9 hPa | - | - | - | - |
| 1777957197 | 21.67° C | 45% | 1015.8 hPa | - | - | - | - |
| 1777956297 | 22.22° C | 50% | 1015.7 hPa | - | - | - | - |
| 1777955397 | 22.22° C | 50% | 1015.5 hPa | - | - | - | - |
| 1777954497 | 22.22° C | 50% | 1015.5 hPa | - | - | - | - |
| 1777953597 | 22.22° C | 49% | 1015.3 hPa | - | - | - | - |
| 1777952697 | 22.22° C | 49% | 1015.2 hPa | - | - | - | - |
| 1777951796 | 22.22° C | 49% | 1015.3 hPa | - | - | - | - |
| 1777950896 | 22.22° C | 49% | 1015.2 hPa | - | - | - | - |
* Rain since midnight (hover to see other rain measurements)
** Current wind speed in m/s (hover to see current wind gust speed)